This demonstration page uses our WeatherBlox Daily Observations layout. Learn more.

Hourly Observations for November 10, 2015

Temp ( °F °C ) Dew Point ( °F °C ) Humidity (%) Winds ( mph kmh ) Pressure ( in mb ) Visibility ( mi km ) Precip ( " mm )
12:15 am 00:15 Clear 45 7 36 2 71 71 SSE 10 17 29.94 1014 10 16.09344 0 0
12:35 am 00:35 Clear 43 6 36 2 76 76 SSE 8 13 29.94 1014 10 16.09344 0 0
12:55 am 00:55 Clear 43 6 36 2 76 76 SSE 10 17 29.94 1014 10 16.09344 0 0
1:15 am 01:15 Clear 43 6 36 2 76 76 SSE 10 17 29.94 1014 10 16.09344 0 0
1:35 am 01:35 Clear 43 6 34 1 71 71 S 9 15 29.94 1014 10 16.09344 0 0
1:55 am 01:55 Clear 41 5 34 1 76 76 S 9 15 29.91 1013 10 16.09344 0 0
2:15 am 02:15 Clear 41 5 34 1 76 76 S 8 13 29.91 1013 10 16.09344 0 0
2:35 am 02:35 Partly Cloudy 41 5 34 1 76 76 S 7 11 29.91 1013 10 16.09344 0 0
2:55 am 02:55 Partly Cloudy 41 5 36 2 81 81 S 6 9 29.97 1015 10 16.09344 0 0
3:15 am 03:15 Partly Cloudy 43 6 36 2 76 76 S 9 15 29.91 1013 10 16.09344 0 0
3:35 am 03:35 Mostly Cloudy 43 6 36 2 76 76 S 6 9 29.91 1013 10 16.09344 0 0
3:55 am 03:55 Cloudy 45 7 36 2 71 71 S 6 9 29.91 1013 10 16.09344 0 0
4:15 am 04:15 Cloudy 45 7 36 2 71 71 SSE 7 11 29.88 1012 10 16.09344 0 0
4:35 am 04:35 Partly Cloudy 41 5 36 2 81 81 SSE 7 11 29.88 1012 10 16.09344 0 0
4:55 am 04:55 Clear 39 4 34 1 81 81 SSE 6 9 29.91 1013 10 16.09344 0 0
5:15 am 05:15 Clear 37 3 34 1 87 87 SE 3 6 29.91 1013 10 16.09344 0 0
5:35 am 05:35 Clear 37 3 34 1 87 87 ESE 3 6 29.94 1014 10 16.09344 0 0
5:55 am 05:55 Clear 36 2 32 0 87 87 SE 6 9 29.94 1014 10 16.09344 0 0
6:15 am 06:15 Clear 36 2 32 0 87 87 SE 3 6 29.94 1014 10 16.09344 0 0
6:35 am 06:35 Mostly Cloudy 36 2 32 0 87 87 Calm 29.94 1014 10 16.09344 0 0
6:55 am 06:55 Cloudy 37 3 34 1 87 87 SSE 3 6 29.94 1014 10 16.09344 0 0
7:15 am 07:15 Cloudy 37 3 34 1 87 87 S 3 6 29.94 1014 10 16.09344 0 0
7:35 am 07:35 Cloudy 39 4 34 1 81 81 SW 3 6 29.91 1013 10 16.09344 0 0
7:55 am 07:55 Cloudy 41 5 36 2 81 81 Calm 29.91 1013 10 16.09344 0 0
8:15 am 08:15 Cloudy 43 6 37 3 81 81 SW 3 6 29.91 1013 10 16.09344 0 0
8:35 am 08:35 Cloudy 45 7 39 4 81 81 SW 5 7 29.91 1013 10 16.09344 0 0
8:55 am 08:55 Cloudy 46 8 41 5 82 82 SSW 3 6 29.91 1013 10 16.09344 0 0
9:15 am 09:15 Cloudy 46 8 43 6 87 87 SSW 7 11 29.91 1013 10 16.09344 0 0
9:35 am 09:35 Cloudy 46 8 43 6 87 87 S 6 9 29.91 1013 10 16.09344 0 0
9:55 am 09:55 Cloudy 46 8 43 6 87 87 SSW 6 9 29.91 1013 10 16.09344 0 0
10:15 am 10:15 Cloudy 48 9 45 7 87 87 SSW 6 9 29.88 1012 10 16.09344 0 0
10:35 am 10:35 Cloudy 48 9 45 7 87 87 SSW 3 6 29.85 1011 10 16.09344 0 0
10:55 am 10:55 Cloudy 48 9 45 7 87 87 Calm 29.85 1011 10 16.09344 0 0
11:15 am 11:15 Cloudy 48 9 45 7 87 87 Calm 29.85 1011 10 16.09344 0 0
11:35 am 11:35 Cloudy 48 9 45 7 87 87 SW 5 7 29.85 1011 10 16.09344 0 0
11:55 am 11:55 Cloudy 50 10 45 7 82 82 SSW 3 6 29.85 1011 10 16.09344 0 0
12:15 pm 12:15 Cloudy 50 10 45 7 82 82 Calm 29.83 1010 10 16.09344 0 0
12:35 pm 12:35 Mostly Cloudy 50 10 45 7 82 82 SSW 3 6 29.83 1010 10 16.09344 0 0
12:55 pm 12:55 Partly Cloudy 52 11 45 7 77 77 SSW 3 6 29.8 1009 10 16.09344 0 0
1:15 pm 13:15 Sunny 54 12 45 7 72 72 Calm 29.77 1008 10 16.09344 0 0
1:35 pm 13:35 Sunny 54 12 45 7 72 72 SE 3 6 29.77 1008 10 16.09344 0 0
1:55 pm 13:55 Sunny 55 13 45 7 67 67 SE 3 6 29.77 1008 10 16.09344 0 0
2:15 pm 14:15 Sunny 55 13 45 7 67 67 S 5 7 29.77 1008 10 16.09344 0 0
2:35 pm 14:35 Sunny 55 13 45 7 67 67 Calm 29.77 1008 10 16.09344 0 0
2:55 pm 14:55 Sunny 57 14 45 7 63 63 SE 5 7 29.74 1007 10 16.09344 0 0
3:15 pm 15:15 Sunny 57 14 45 7 63 63 SSE 5 7 29.74 1007 10 16.09344 0 0
3:35 pm 15:35 Sunny 59 15 45 7 59 59 SSE 9 15 29.74 1007 10 16.09344 0 0
3:55 pm 15:55 Sunny 59 15 43 6 55 55 SSE 8 13 29.74 1007 10 16.09344 0 0
4:15 pm 16:15 Sunny 59 15 43 6 55 55 SSE 7 11 29.74 1007 10 16.09344 0 0
4:35 pm 16:35 Sunny 59 15 43 6 55 55 SSE 8 13 29.71 1006 10 16.09344 0 0
4:55 pm 16:55 Sunny 57 14 43 6 59 59 SSE 7 11 29.71 1006 10 16.09344 0 0
5:15 pm 17:15 Sunny 54 12 41 5 63 63 SE 8 13 29.74 1007 10 16.09344 0 0
5:35 pm 17:35 Clear 50 10 41 5 71 71 SSE 6 9 29.77 1008 10 16.09344 0 0
5:55 pm 17:55 Clear 48 9 39 4 71 71 SSE 6 9 29.77 1008 10 16.09344 0 0
6:15 pm 18:15 Clear 48 9 39 4 71 71 S 7 11 29.77 1008 10 16.09344 0 0
6:35 pm 18:35 Clear 46 8 41 5 82 82 SSE 7 11 29.77 1008 10 16.09344 0 0
6:55 pm 18:55 Clear 45 7 39 4 81 81 SSE 8 13 29.83 1010 10 16.09344 0 0
7:15 pm 19:15 Clear 45 7 41 5 87 87 SSE 8 13 29.77 1008 10 16.09344 0 0
7:35 pm 19:35 Clear 45 7 39 4 81 81 SE 8 13 29.77 1008 10 16.09344 0 0
7:55 pm 19:55 Clear 43 6 39 4 87 87 SSE 6 9 29.8 1009 10 16.09344 0 0
8:15 pm 20:15 Clear 41 5 39 4 93 93 SE 3 6 29.8 1009 10 16.09344 0 0
8:35 pm 20:35 Clear 41 5 39 4 93 93 Calm 29.77 1008 10 16.09344 0 0
8:55 pm 20:55 Clear 39 4 37 3 93 93 Calm 29.77 1008 7 11.265408 0 0
9:15 pm 21:15 Clear 36 2 34 1 93 93 NNE 3 6 29.8 1009 7 11.265408 0 0
9:35 pm 21:35 Clear with Mist and Fog 36 2 34 1 93 93 NE 5 7 29.8 1009 5 8.04672 0 0
9:55 pm 21:55 Clear with Mist and Fog 36 2 34 1 93 93 Calm 29.8 1009 5 8.04672 0 0
10:15 pm 22:15 Clear with Mist and Fog 36 2 34 1 93 93 N 5 7 29.8 1009 5 8.04672 0 0
10:35 pm 22:35 Clear with Mist and Fog 36 2 34 1 93 93 NNE 8 13 29.8 1009 3 4.828032 0 0
10:55 pm 22:55 Clear with Mist and Fog 36 2 34 1 93 93 NNE 6 9 29.8 1009 4 6.437376 0 0
11:15 pm 23:15 Clear with Mist and Fog 36 2 34 1 93 93 NNE 7 11 29.77 1008 4 6.437376 0 0
11:35 pm 23:35 Clear with Mist and Fog 36 2 34 1 93 93 NNE 8 13 29.77 1008 4 6.437376 0 0
11:55 pm 23:55 Clear with Mist and Fog 37 3 37 3 100 100 NNE 8 13 29.77 1008 3 4.828032 0 0

Powered by AerisWeather